Home > Weather > Montfoort > Past weeks

Flag for Netherlands Past Weather in Montfoort, Netherlands — Yesterday and Last 2 Weeks

Now
62 °F

Overcast.


Feels Like: 62 °F
Forecast: 61 / 72 °F
Wind: 1 mph from Southwest

Location: De Bilt

Current Time: Jul 27, 2016 at 3:52:35 AM

Latest Report: Jul 27, 2016 at 2:00 AM


Visibility: 19 mi

Pressure: 30.09 "Hg

Humidity: 95%

Dew Point: 61 °F

Location of MontfoortLocation

Past Weather in Montfoort — Graph

°F

Montfoort Temperature Yesterday

Maximum temperature yesterday: 73 °F (at 4:00 PM)
Minimum temperature yesterday: 53 °F (at 4:00 AM)
Average temperature yesterday: 64 °F

High & Low Weather Summary for the Past Weeks

 TemperatureHumidityPressure
High90 °F (Jul 20, 3:00 PM)100% (Jul 18, 7:00 AM)30.28 "Hg (Jul 18, 7:00 AM)
Low48 °F (Jul 14, 6:00 AM)37% (Jul 18, 8:00 PM)29.82 "Hg (Jul 20, 5:00 PM)
Average67 °F77%30.08 "Hg
* Reported Jul 12 2:00 AM — Jul 27 2:00 AM, Montfoort, Weather by CustomWeather, © 2016

Note: Actual official high and low records may vary slightly from our data, if they occured in-between our weather recording intervals... More about our weather records

Advertising

Montfoort Weather History for the Previous 24 Hours

Scroll right to see more
 ConditionsComfort  
Time TempWeatherWind HumidityBarometerVisibility
2:00 AM
Wed, Jul 27
62 °FOvercast.1 mph95%30.09 "Hg19 mi
1:00 AM62 °FOvercast.No wind93%30.11 "Hg22 mi
12:00 AM62 °FOvercast.1 mph93%30.11 "Hg25 mi
11:00 PM
Tue, Jul 26
61 °FOvercast.1 mph93%30.12 "Hg22 mi
10:00 PM64 °FFog.1 mph85%30.12 "Hg2 mi
8:00 PM70 °FOvercast.2 mph59%30.12 "Hg25 mi
7:00 PM71 °FOvercast.3 mph57%30.12 "Hg28 mi
6:00 PM72 °FOvercast.3 mph54%30.12 "Hg25 mi
5:00 PM73 °FOvercast.2 mph52%30.13 "Hg25 mi
4:00 PM73 °FOvercast.1 mph56%30.13 "Hg25 mi
3:00 PM72 °FOvercast.1 mph55%30.14 "Hg22 mi
2:00 PM72 °FOvercast.2 mph57%30.14 "Hg22 mi
1:00 PM71 °FOvercast.2 mph58%30.14 "Hg22 mi
12:00 PM73 °FOvercast.2 mph53%30.14 "Hg18 mi
11:00 AM70 °FOvercast.N/A71%30.14 "Hg17 mi
10:00 AM67 °FOvercast.2 mph80%30.14 "Hg11 mi
9:00 AM65 °FOvercast.2 mph82%30.14 "Hg11 mi
8:00 AM62 °FScattered clouds.2 mph90%30.14 "Hg7 mi
7:00 AM58 °FFog.2 mph100%30.13 "Hg3 mi
6:00 AM55 °FFog.2 mph100%30.12 "Hg2 mi
5:00 AM55 °FOvercast.1 mph100%30.12 "Hg1 mi
4:00 AM53 °FOvercast.1 mph99%30.13 "Hg3 mi
3:00 AM54 °FOvercast.1 mph99%30.13 "Hg1 mi
Weather by CustomWeather, © 2016

See weather overviewHow to use our weather pages